カタログに戻る

HULIANWANG DIGUI-30

運用中通信PO
NORAD 64283·PAYLOAD·🇨🇳 China

打ち上げ Jun 5, 2025 から Taiyuan Satellite Launch Center

Loading…

次のパス (今後24時間)

TLE

最新Source: Space-Track

元期: Sep 14, 2026, 14:49 UTC

1 64283U 25121A   26257.61737601  .00000038  00000-0  55172-4 0  9992
2 64283  86.5048 343.4009 0001607 108.1485 251.9824 13.24410466 61997

AllMySatでHULIANWANG DIGUI-30をリアルタイム追跡

Download on the App Store